Time,TemperatureF,DewpointF,PressureIn,WindDirection,WindDirectionDegrees,WindSpeedMPH,WindSpeedGustMPH,Humidity,HourlyPrecipIn,Conditions,Clouds,dailyrainin,SolarRadiationWatts/m^2,SoftwareType,DateUTC
2013-04-18 00:09:00,67.7,59.0,29.87,South,190,2.0,6.0,74,0.00,,,0.00,0,weatherlink.com 1.10,2013-04-18 04:09:00,
2013-04-18 00:24:00,67.9,59.0,29.86,SSW,202,1.0,6.0,74,0.00,,,0.00,0,weatherlink.com 1.10,2013-04-18 04:24:00,
2013-04-18 00:40:00,67.9,59.0,29.86,SW,215,1.0,6.0,74,0.00,,,0.00,0,weatherlink.com 1.10,2013-04-18 04:40:00,
2013-04-18 00:55:00,68.0,60.0,29.85,South,178,2.0,4.0,75,0.00,,,0.00,0,weatherlink.com 1.10,2013-04-18 04:55:00,
2013-04-18 01:10:00,67.9,60.0,29.85,South,191,2.0,3.0,75,0.00,,,0.00,0,weatherlink.com 1.10,2013-04-18 05:10:00,
2013-04-18 01:25:00,67.6,60.0,29.85,SW,218,2.0,7.0,76,0.00,,,0.00,0,weatherlink.com 1.10,2013-04-18 05:25:00,
2013-04-18 01:40:00,67.9,60.0,29.84,SSW,204,0.0,4.0,76,0.00,,,0.00,0,weatherlink.com 1.10,2013-04-18 05:40:00,
2013-04-18 01:55:00,67.7,60.0,29.84,SSE,166,1.0,3.0,77,0.00,,,0.00,0,weatherlink.com 1.10,2013-04-18 05:55:00,
2013-04-18 02:10:00,67.6,60.0,29.84,South,188,1.0,4.0,77,0.00,,,0.00,0,weatherlink.com 1.10,2013-04-18 06:10:00,
2013-04-18 02:25:00,67.4,60.0,29.84,South,188,0.0,1.0,78,0.00,,,0.00,0,weatherlink.com 1.10,2013-04-18 06:25:00,
2013-04-18 02:40:00,67.0,60.0,29.84,South,188,1.0,2.0,79,0.00,,,0.00,0,weatherlink.com 1.10,2013-04-18 06:40:00,
2013-04-18 02:55:00,66.1,60.0,29.83,SE,126,0.0,1.0,80,0.00,,,0.00,0,weatherlink.com 1.10,2013-04-18 06:55:00,
2013-04-18 03:10:00,65.2,60.0,29.82,SE,140,0.0,1.0,82,0.00,,,0.00,0,weatherlink.com 1.10,2013-04-18 07:10:00,
2013-04-18 03:25:00,64.7,60.0,29.81,SE,140,1.0,2.0,84,0.00,,,0.00,0,weatherlink.com 1.10,2013-04-18 07:25:00,
2013-04-18 03:40:00,64.4,60.0,29.81,SSE,158,1.0,2.0,84,0.00,,,0.00,0,weatherlink.com 1.10,2013-04-18 07:40:00,
2013-04-18 03:55:00,64.3,60.0,29.81,ENE,63,0.0,1.0,85,0.00,,,0.00,0,weatherlink.com 1.10,2013-04-18 07:55:00,
2013-04-18 04:10:00,64.1,60.0,29.81,ENE,63,0.0,1.0,85,0.00,,,0.00,0,weatherlink.com 1.10,2013-04-18 08:10:00,
2013-04-18 04:25:00,64.1,60.0,29.81,ENE,63,0.0,1.0,85,0.00,,,0.00,0,weatherlink.com 1.10,2013-04-18 08:25:00,
2013-04-18 04:40:00,63.9,60.0,29.80,ENE,63,0.0,1.0,86,0.00,,,0.00,0,weatherlink.com 1.10,2013-04-18 08:40:00,
2013-04-18 04:55:00,63.8,60.0,29.80,South,179,0.0,2.0,86,0.00,,,0.00,0,weatherlink.com 1.10,2013-04-18 08:55:00,
2013-04-18 05:10:00,64.0,60.0,29.80,South,179,1.0,2.0,86,0.00,,,0.00,0,weatherlink.com 1.10,2013-04-18 09:10:00,
2013-04-18 05:25:00,64.3,60.0,29.81,SSW,200,0.0,3.0,86,0.00,,,0.00,0,weatherlink.com 1.10,2013-04-18 09:25:00,
2013-04-18 05:40:00,64.6,60.0,29.81,South,172,1.0,2.0,86,0.00,,,0.00,0,weatherlink.com 1.10,2013-04-18 09:40:00,
2013-04-18 05:55:00,64.5,60.0,29.81,South,172,1.0,1.0,86,0.00,,,0.00,0,weatherlink.com 1.10,2013-04-18 09:55:00,
2013-04-18 06:10:00,64.4,61.0,29.81,South,184,1.0,2.0,87,0.00,,,0.00,0,weatherlink.com 1.10,2013-04-18 10:10:00,
2013-04-18 06:25:00,64.3,60.0,29.81,South,173,1.0,2.0,87,0.00,,,0.00,0,weatherlink.com 1.10,2013-04-18 10:25:00,
2013-04-18 06:40:00,64.2,60.0,29.81,SSW,192,0.0,2.0,87,0.00,,,0.00,0,weatherlink.com 1.10,2013-04-18 10:40:00,
2013-04-18 06:55:00,64.4,61.0,29.81,South,180,1.0,2.0,88,0.00,,,0.00,0,weatherlink.com 1.10,2013-04-18 10:55:00,
2013-04-18 07:10:00,64.4,61.0,29.82,SSW,200,1.0,3.0,87,0.00,,,0.00,5,weatherlink.com 1.10,2013-04-18 11:10:00,
2013-04-18 07:25:00,64.7,61.0,29.82,SSE,159,0.0,3.0,87,0.00,,,0.00,16,weatherlink.com 1.10,2013-04-18 11:25:00,
2013-04-18 07:40:00,65.4,61.0,29.82,South,173,2.0,4.0,86,0.00,,,0.00,33,weatherlink.com 1.10,2013-04-18 11:40:00,
2013-04-18 07:55:00,65.9,61.0,29.83,South,187,1.0,4.0,85,0.00,,,0.00,60,weatherlink.com 1.10,2013-04-18 11:55:00,
2013-04-18 08:10:00,66.3,62.0,29.84,SSE,161,3.0,4.0,85,0.00,,,0.00,58,weatherlink.com 1.10,2013-04-18 12:10:00,
2013-04-18 08:25:00,66.8,62.0,29.84,SSW,194,3.0,4.0,84,0.00,,,0.00,60,weatherlink.com 1.10,2013-04-18 12:25:00,
2013-04-18 08:40:00,67.4,62.0,29.85,South,191,3.0,5.0,84,0.00,,,0.00,102,weatherlink.com 1.10,2013-04-18 12:40:00,
2013-04-18 08:55:00,68.1,62.0,29.85,SSE,158,2.0,8.0,82,0.00,,,0.00,83,weatherlink.com 1.10,2013-04-18 12:55:00,
2013-04-18 09:10:00,68.7,63.0,29.84,SSW,192,2.0,6.0,81,0.00,,,0.00,98,weatherlink.com 1.10,2013-04-18 13:10:00,
2013-04-18 09:25:00,69.5,62.0,29.85,South,186,3.0,7.0,78,0.00,,,0.00,202,weatherlink.com 1.10,2013-04-18 13:25:00,
2013-04-18 09:40:00,70.3,63.0,29.85,SSW,194,4.0,7.0,77,0.00,,,0.00,192,weatherlink.com 1.10,2013-04-18 13:40:00,
2013-04-18 09:55:00,70.5,62.0,29.86,SW,219,2.0,11.0,75,0.00,,,0.00,236,weatherlink.com 1.10,2013-04-18 13:55:00,
2013-04-18 10:11:00,71.6,63.0,29.85,SSE,162,3.0,12.0,73,0.00,,,0.00,371,weatherlink.com 1.10,2013-04-18 14:11:00,
2013-04-18 10:26:00,72.2,62.0,29.84,South,180,3.0,12.0,70,0.00,,,0.00,399,weatherlink.com 1.10,2013-04-18 14:26:00,
2013-04-18 10:41:00,72.5,61.0,29.83,SSW,198,3.0,10.0,67,0.00,,,0.00,281,weatherlink.com 1.10,2013-04-18 14:41:00,
2013-04-18 10:56:00,73.4,60.0,29.83,South,186,3.0,10.0,64,0.00,,,0.00,664,weatherlink.com 1.10,2013-04-18 14:56:00,
2013-04-18 11:11:00,74.5,60.0,29.82,SSW,210,7.0,9.0,60,0.00,,,0.00,703,weatherlink.com 1.10,2013-04-18 15:11:00,
2013-04-18 11:41:00,75.9,60.0,29.81,SSE,164,3.0,10.0,59,0.00,,,0.00,840,weatherlink.com 1.10,2013-04-18 15:41:00,
2013-04-18 11:56:00,76.5,60.0,29.81,SSE,166,4.0,13.0,56,0.00,,,0.00,770,weatherlink.com 1.10,2013-04-18 15:56:00,
2013-04-18 12:11:00,77.0,60.0,29.80,SSE,156,4.0,17.0,55,0.00,,,0.00,854,weatherlink.com 1.10,2013-04-18 16:11:00,
2013-04-18 12:26:00,77.8,59.0,29.79,SSW,194,3.0,9.0,52,0.00,,,0.00,933,weatherlink.com 1.10,2013-04-18 16:26:00,
2013-04-18 12:41:00,78.4,59.0,29.79,SSE,151,6.0,10.0,51,0.00,,,0.00,722,weatherlink.com 1.10,2013-04-18 16:41:00,
2013-04-18 12:56:00,78.1,58.0,29.78,SW,232,10.0,11.0,50,0.00,,,0.00,886,weatherlink.com 1.10,2013-04-18 16:56:00,
2013-04-18 13:11:00,78.6,59.0,29.77,South,178,4.0,11.0,51,0.00,,,0.00,946,weatherlink.com 1.10,2013-04-18 17:11:00,
2013-04-18 13:26:00,79.4,58.0,29.77,South,175,3.0,16.0,48,0.00,,,0.00,933,weatherlink.com 1.10,2013-04-18 17:26:00,
2013-04-18 13:41:00,79.5,60.0,29.77,SSE,167,4.0,14.0,52,0.00,,,0.00,1025,weatherlink.com 1.10,2013-04-18 17:41:00,
2013-04-18 13:56:00,80.1,58.0,29.77,South,184,3.0,10.0,47,0.00,,,0.00,930,weatherlink.com 1.10,2013-04-18 17:56:00,
2013-04-18 14:11:00,80.7,59.0,29.76,SSW,194,5.0,17.0,47,0.00,,,0.00,909,weatherlink.com 1.10,2013-04-18 18:11:00,
2013-04-18 14:26:00,80.8,58.0,29.75,SSW,200,3.0,7.0,46,0.00,,,0.00,422,weatherlink.com 1.10,2013-04-18 18:26:00,
2013-04-18 14:41:00,81.1,58.0,29.75,South,175,2.0,6.0,46,0.00,,,0.00,633,weatherlink.com 1.10,2013-04-18 18:41:00,
2013-04-18 14:56:00,80.8,57.0,29.74,South,171,4.0,10.0,44,0.00,,,0.00,882,weatherlink.com 1.10,2013-04-18 18:56:00,
2013-04-18 15:11:00,81.1,56.0,29.74,South,180,3.0,12.0,42,0.00,,,0.00,747,weatherlink.com 1.10,2013-04-18 19:11:00,
2013-04-18 15:27:00,80.5,57.0,29.72,South,173,3.0,11.0,45,0.00,,,0.00,357,weatherlink.com 1.10,2013-04-18 19:27:00,
2013-04-18 15:42:00,82.5,55.0,29.73,SSW,195,6.0,10.0,39,0.00,,,0.00,858,weatherlink.com 1.10,2013-04-18 19:42:00,
2013-04-18 15:57:00,81.7,56.0,29.72,SSE,155,3.0,13.0,41,0.00,,,0.00,631,weatherlink.com 1.10,2013-04-18 19:57:00,
2013-04-18 16:12:00,81.1,53.0,29.72,WSW,248,10.0,18.0,38,0.00,,,0.00,269,weatherlink.com 1.10,2013-04-18 20:12:00,
2013-04-18 16:27:00,83.0,59.0,29.71,South,180,4.0,8.0,44,0.00,,,0.00,789,weatherlink.com 1.10,2013-04-18 20:27:00,
2013-04-18 16:42:00,82.2,54.0,29.70,SSW,205,6.0,14.0,38,0.00,,,0.00,642,weatherlink.com 1.10,2013-04-18 20:42:00,
2013-04-18 16:57:00,80.3,55.0,29.70,SSW,192,2.0,11.0,42,0.00,,,0.00,536,weatherlink.com 1.10,2013-04-18 20:57:00,
2013-04-18 17:12:00,80.5,55.0,29.69,South,180,5.0,14.0,41,0.00,,,0.00,334,weatherlink.com 1.10,2013-04-18 21:12:00,
2013-04-18 17:27:00,79.2,56.0,29.68,SSE,164,2.0,8.0,45,0.00,,,0.00,267,weatherlink.com 1.10,2013-04-18 21:27:00,
2013-04-18 17:42:00,78.3,55.0,29.68,SE,134,8.0,8.0,45,0.00,,,0.00,229,weatherlink.com 1.10,2013-04-18 21:42:00,
2013-04-18 17:57:00,78.3,55.0,29.68,South,186,4.0,9.0,45,0.00,,,0.00,306,weatherlink.com 1.10,2013-04-18 21:57:00,
2013-04-18 18:12:00,78.9,56.0,29.68,SSE,161,3.0,8.0,45,0.00,,,0.00,246,weatherlink.com 1.10,2013-04-18 22:12:00,
2013-04-18 18:27:00,77.7,55.0,29.68,SSE,153,3.0,9.0,46,0.00,,,0.00,155,weatherlink.com 1.10,2013-04-18 22:27:00,
2013-04-18 18:42:00,77.2,55.0,29.67,South,175,4.0,8.0,46,0.00,,,0.00,104,weatherlink.com 1.10,2013-04-18 22:42:00,
2013-04-18 18:57:00,76.7,55.0,29.66,South,189,3.0,7.0,48,0.00,,,0.00,156,weatherlink.com 1.10,2013-04-18 22:57:00,
2013-04-18 19:12:00,76.9,55.0,29.66,SSW,198,2.0,7.0,47,0.00,,,0.00,137,weatherlink.com 1.10,2013-04-18 23:12:00,
2013-04-18 19:27:00,76.3,56.0,29.64,South,188,4.0,7.0,50,0.00,,,0.00,46,weatherlink.com 1.10,2013-04-18 23:27:00,
2013-04-18 19:42:00,75.3,55.0,29.64,South,181,1.0,4.0,50,0.00,,,0.00,33,weatherlink.com 1.10,2013-04-18 23:42:00,
2013-04-18 19:57:00,75.0,55.0,29.64,West,277,3.0,6.0,50,0.00,,,0.00,12,weatherlink.com 1.10,2013-04-18 23:57:00,
2013-04-18 20:27:00,75.0,56.0,29.64,South,185,2.0,6.0,51,0.00,,,0.00,0,weatherlink.com 1.10,2013-04-19 00:27:00,
2013-04-18 20:42:00,74.6,56.0,29.63,SSE,155,1.0,9.0,52,0.00,,,0.00,0,weatherlink.com 1.10,2013-04-19 00:42:00,
2013-04-18 20:57:00,74.6,56.0,29.63,South,186,2.0,8.0,52,0.00,,,0.00,0,weatherlink.com 1.10,2013-04-19 00:57:00,
2013-04-18 21:12:00,74.6,56.0,29.63,SSW,196,2.0,7.0,53,0.00,,,0.00,0,weatherlink.com 1.10,2013-04-19 01:12:00,
2013-04-18 21:27:00,74.9,56.0,29.62,South,180,3.0,8.0,52,0.00,,,0.00,0,weatherlink.com 1.10,2013-04-19 01:27:00,
2013-04-18 21:42:00,74.8,56.0,29.61,SSW,194,2.0,8.0,53,0.00,,,0.00,0,weatherlink.com 1.10,2013-04-19 01:42:00,
2013-04-18 21:57:00,74.3,56.0,29.58,SSE,155,3.0,5.0,54,0.00,,,0.00,0,weatherlink.com 1.10,2013-04-19 01:57:00,
2013-04-18 22:12:00,73.9,57.0,29.58,SSE,159,2.0,5.0,55,0.00,,,0.00,0,weatherlink.com 1.10,2013-04-19 02:12:00,
2013-04-18 22:27:00,73.8,57.0,29.58,SSW,202,2.0,6.0,55,0.00,,,0.00,0,weatherlink.com 1.10,2013-04-19 02:27:00,
2013-04-18 22:42:00,73.8,57.0,29.57,SSE,165,4.0,9.0,55,0.00,,,0.00,0,weatherlink.com 1.10,2013-04-19 02:42:00,
2013-04-18 22:57:00,73.5,57.0,29.57,SSW,205,4.0,7.0,56,0.00,,,0.00,0,weatherlink.com 1.10,2013-04-19 02:57:00,
2013-04-18 23:12:00,73.4,57.0,29.58,SSE,165,1.0,9.0,56,0.00,,,0.00,0,weatherlink.com 1.10,2013-04-19 03:12:00,
2013-04-18 23:27:00,73.2,57.0,29.57,South,187,3.0,6.0,57,0.00,,,0.00,0,weatherlink.com 1.10,2013-04-19 03:27:00,
2013-04-18 23:42:00,73.3,57.0,29.57,West,263,4.0,6.0,57,0.00,,,0.00,0,weatherlink.com 1.10,2013-04-19 03:42:00,
2013-04-18 23:57:00,73.4,57.0,29.57,South,173,4.0,13.0,57,0.00,,,0.00,0,weatherlink.com 1.10,2013-04-19 03:57:00,